Content
SEND FEEDBACK

Daily
Averages
Monthly
Summary
United States of America

LANESBORO, MASSACHUSETTS


Home > North America > United States > Massachusetts
Elevation: 1240 feet     Latitude: 42 33N     Longitude: 073 14W

WEATHER
 
SELECT A DAY
Number of Records: 186,461;   Date Range: 1/20/99 - 7/26/14
 
SHARE

PRINT THIS DATA

[ ← Previous Day ]
WEATHER ALMANAC - FEBRUARY 13, 2013
[ Next Day → ]
[ °C ]   °F
Weather ElementAverageHighLow
Temperature30.8 °F36 °F (2:54 pm)28.4 °F (2:03 am)
Dewpoint19.6 °F21.9 °F (4:54 am)18 °F (1:54 pm)
Humidity63.6 %75 % (4:54 am)48 % (2:54 pm)
Barometer29.79 in29.86 in (1:54 am)29.69 in (11:54 pm)
Wind Speed4.3 mph10.4 mph (10:54 am)
Weather ElementAverage
Visibility10 mi
Wind DirectionSSE (160.3 °)

Weather ElementTotal
Precipitation---
Heating Degree Days32.8 (Base 65)
Averaged from 29 records on February 13, 2013
WEATHER CONDITIONS BREAKOUT
WIND DIRECTION BREAKOUT
WEATHER BY HOUR - FEBRUARY 13, 2013
[ °C ]   °F
Local TimeTemperatureDewpointHumidityBarometerVisibilityWind DirectionWind SpeedGust SpeedPrecipitationEventsConditions
1:54 AM28.9 °F19.9 °F69 %29.86 in10.0 miWest (270°)4.6 mphOvercast
2:03 AM28.4 °F21.2 °F74 %29.83 in10.0 miWNW (300°)4.6 mphOvercast
2:54 AM28.9 °F21.0 °F72 %29.86 in10.0 miWest (270°)6.9 mphOvercast
3:54 AM28.9 °F21.0 °F72 %29.86 in10.0 miWest (270°)5.8 mphOvercast
4:54 AM28.9 °F21.9 °F75 %29.86 in10.0 miWest (260°)5.8 mphOvercast
5:54 AM28.9 °F21.0 °F72 %29.85 in10.0 miWest (270°)9.2 mphOvercast
6:54 AM28.9 °F21.0 °F72 %29.85 in10.0 miWest (270°)5.8 mphOvercast
7:54 AM28.9 °F21.0 °F72 %29.85 in10.0 miVariable6.9 mphOvercast
8:29 AM30.2 °F21.2 °F69 %29.82 in10.0 miWNW (290°)5.8 mphOvercast
8:54 AM30.0 °F19.9 °F66 %29.84 in10.0 miWest (270°)6.9 mphOvercast
9:54 AM30.9 °F19.9 °F64 %29.83 in10.0 miNW (310°)6.9 mphOvercast
10:54 AM30.9 °F19.0 °F61 %29.83 in10.0 miWNW (300°)10.4 mphOvercast
11:43 AM30.2 °F19.4 °F64 %29.79 in10.0 miWest (260°)9.2 mphOvercast
11:54 AM32.0 °F19.0 °F59 %29.81 in10.0 miCalmOvercast
12:16 PM32.0 °F19.4 °F60 %29.77 in10.0 miNNW (330°)8.1 mphOvercast
12:26 PM32.0 °F19.4 °F60 %29.77 in10.0 miNNW (340°)5.8 mphOvercast
12:50 PM33.8 °F19.4 °F56 %29.78 in10.0 miWNW (290°)4.6 mphMostly Cloudy
12:54 PM33.1 °F19.0 °F56 %29.81 in10.0 miWest (270°)5.8 mphMostly Cloudy
1:54 PM34.0 °F18.0 °F52 %29.77 in10.0 miNE (40°)5.8 mphMostly Cloudy
2:54 PM36.0 °F18.0 °F48 %29.74 in10.0 miCalmClear
3:54 PM36.0 °F18.0 °F48 %29.73 in10.0 miCalmClear
4:54 PM34.0 °F18.0 °F52 %29.71 in10.0 miCalmClear
5:54 PM30.0 °F19.9 °F66 %29.72 in10.0 miCalmClear
6:54 PM28.9 °F19.9 °F69 %29.71 in10.0 miCalmClear
7:54 PM30.0 °F18.0 °F61 %29.71 in10.0 miCalmClear
8:54 PM30.0 °F19.0 °F64 %29.72 in10.0 miCalmOvercast
9:54 PM30.0 °F19.0 °F64 %29.71 in10.0 miCalmOvercast
10:54 PM30.0 °F19.0 °F64 %29.70 in10.0 miNE (40°)4.6 mphOvercast
11:54 PM28.9 °F18.0 °F64 %29.69 in10.0 miCalmOvercast
Hourly data recorded from KPSF, located miles away from Lanesboro, Massachusetts







STORIES FROM OUR PARTNERS